Weather History for Namest Nad Oslav, Czech Republic

Change the Weather History Date:

Thursday, March 28, 2013

  Actual Average Record
Temperature  
Mean Temperature 29 °F -  
Max Temperature 32 °F - - ()
Min Temperature 26 °F - - ()
Degree Days  
Heating Degree Days 36    
Moisture  
Dew Point 25 °F    
Average Humidity 84    
Maximum Humidity 93    
Minimum Humidity 69    
Precipitation  
Precipitation 0.00 in - - ()
Sea Level Pressure  
Sea Level Pressure 29.84 in    
Wind  
Wind Speed 10 mph ()    
Max Wind Speed 18 mph    
Max Gust Speed -    
Visibility 4.6 miles    
Events Snow    
T = Trace of Precipitation, MM = Missing Value Source: Averaged Metar Reports

Daily Weather History Graph

Daily Weather History Graph

Search for Another Location

Airport:

Trip Planner

Search our weather history database for the weather conditions in past years. The results will help you decide how hot, cold, wet, or windy it might be!

Date:

Astronomy

Mar. 28, 2013 Rise Set
Actual Time 5:41 AM CET 6:20 PM CET
Civil Twilight 5:09 AM CET 6:52 PM CET
Nautical Twilight 4:31 AM CET 7:30 PM CET
Astronomical Twilight 3:51 AM CET 8:11 PM CET
Moon 8:04 PM CET (3/28) 5:49 AM CET (3/28)
Length of Visible Light 13h 43m
Length of Day
12h 39m
Full, 99% of the Moon is Illuminated
Mar 28
Full
Apr 3
Last Quarter
Apr 10
New
Apr 18
First Quarter
Apr 25
Full

Hourly Weather History & Observations

Time (CET) Temp. Windchill Dew Point Humidity Pressure Visibility Wind Dir Wind Speed Gust Speed Precip Events Conditions
12:00 AM 26.6 °F 19.1 °F 23.0 °F 86% 29.86 in 5.0 mi East 6.9 mph - N/A Snow Light Snow
1:00 AM 26.6 °F 20.0 °F 23.0 °F 86% 29.83 in 5.0 mi East 5.8 mph - N/A Snow Light Snow
2:00 AM 26.6 °F 20.0 °F 24.8 °F 93% 29.83 in 1.6 mi East 5.8 mph - N/A Snow Light Snow
3:00 AM 26.6 °F 19.1 °F 24.8 °F 93% 29.83 in 1.6 mi ESE 6.9 mph - N/A Snow Light Snow
4:00 AM 26.6 °F 20.0 °F 24.8 °F 93% 29.83 in 1.6 mi East 5.8 mph - N/A Snow Light Snow
5:00 AM 26.6 °F 16.8 °F 24.8 °F 93% 29.83 in 1.6 mi ESE 10.4 mph - N/A Snow Light Snow
6:00 AM 26.6 °F 16.8 °F 24.8 °F 93% 29.83 in 1.1 mi ESE 10.4 mph - N/A   Overcast
7:00 AM 26.6 °F 16.8 °F 24.8 °F 93% 29.86 in 1.0 mi ESE 10.4 mph - N/A   Overcast
8:00 AM 26.6 °F 16.2 °F 24.8 °F 93% 29.86 in 2.8 mi ESE 11.5 mph - N/A   Mostly Cloudy
8:28 AM 28.4 °F 17.0 °F 24.8 °F 86% 29.86 in 3.1 mi ESE 15.0 mph - N/A   Mostly Cloudy
9:00 AM 28.4 °F 17.5 °F 24.8 °F 86% 29.86 in 5.0 mi ESE 13.8 mph - N/A   Mostly Cloudy
10:00 AM 28.4 °F 16.6 °F 23.0 °F 80% 29.86 in 6.2 mi SE 16.1 mph - N/A   Mostly Cloudy
11:00 AM 30.2 °F 18.5 °F 23.0 °F 75% 29.86 in 6.2 mi SE 17.3 mph - N/A   Mostly Cloudy
12:00 PM 30.2 °F 18.1 °F 23.0 °F 75% 29.86 in 6.2 mi SE 18.4 mph - N/A   Mostly Cloudy
1:00 PM 32.0 °F 20.5 °F 23.0 °F 69% 29.86 in 6.2 mi SE 18.4 mph - N/A   Mostly Cloudy
2:00 PM 32.0 °F 20.5 °F 23.0 °F 69% 29.86 in 6.2 mi SE 18.4 mph - N/A   Mostly Cloudy
3:00 PM 32.0 °F 20.8 °F 24.8 °F 75% 29.83 in 6.2 mi SE 17.3 mph - N/A   Overcast
4:00 PM 32.0 °F 20.8 °F 26.6 °F 80% 29.86 in 6.2 mi SE 17.3 mph - N/A   Overcast
5:00 PM 32.0 °F 21.6 °F 26.6 °F 80% 29.83 in 5.6 mi SE 15.0 mph - N/A   Overcast
6:00 PM 32.0 °F 22.1 °F 26.6 °F 80% 29.83 in 5.6 mi SE 13.8 mph - N/A   Overcast
7:00 PM 32.0 °F 22.5 °F 26.6 °F 80% 29.83 in 5.6 mi ESE 12.7 mph - N/A   Overcast
8:00 PM 30.2 °F 19.3 °F 26.6 °F 86% 29.83 in 6.2 mi ESE 15.0 mph - N/A   Overcast
9:00 PM 30.2 °F 18.9 °F 26.6 °F 86% 29.83 in 6.2 mi ESE 16.1 mph - N/A   Overcast
10:00 PM 30.2 °F 18.9 °F 26.6 °F 86% 29.80 in 6.2 mi ESE 16.1 mph - N/A   Overcast
11:00 PM 30.2 °F 18.5 °F 26.6 °F 86% 29.77 in 5.6 mi ESE 17.3 mph - N/A   Overcast